Temp
-8 -8 -9 -10 -10 -9 -9 -9 -8 -8 -7 -7 -7 -7 -7 -6 -6 -6 -6 -6 -6 -6 -6 -6 -6 -6 -7 -7 -7 -7 -7 -7 -7 -8 -9 -8 -8 -8 -9 -9 -8 -8 -8
-9 -9 -9 -9 -9 -9 -9 -9 -9 -8 -8 -7 -7 -7 -7 -7 -6 -6 -6 -6 -6 -6 -6 -7 -7 -7 -7 -7 -7 -7 -7 -7 -7 -7 -7 -9 -7 -8 -8 -8 -8 -8 -8
-9 -9 -9 -9 -9 -9 -9 -9 -9 -8 -8 -7 -7 -7 -7 -7 -7 -7 -6 -7 -7 -7 -7 -7 -7 -7 -7 -7 -7 -8 -8 -8 -8 -8 -8 -8 -8 -8 -8 -8 -8 -8 -8
-9 -9 -9 -9 -9 -9 -9 -9 -9 -8 -8 -8 -7 -7 -7 -7 -7 -7 -7 -7 -7 -7 -7 -7 -7 -7 -7 -7 -7 -7 -7 -8 -8 -8 -8 -8 -8 -8 -8 -8 -8 -8 -8
-9 -9 -9 -9 -9 -9 -9 -9 -9 -8 -8 -8 -7 -7 -7 -7 -7 -7 -7 -7 -8 -8 -8 -7 -7 -7 -7 -7 -7 -7 -8 -8 -8 -8 -8 -8 -8 -8 -8 -8 -8 -8 -8
-10 -10 -10 -9 -9 -9 -9 -9 -9 -9 -8 -8 -8 -7 -7 -7 -7 -7 -7 -7 -7 -7 -7 -8 -8 -8 -7 -8 -8 -8 -8 -8 -8 -7 -7 -7 -8 -8 -8 -8 -8 -8 -8
-10 -10 -10 -10 -9 -9 -9 -9 -9 -9 -8 -8 -8 -8 -8 -8 -8 -8 -8 -8 -8 -8 -8 -8 -8 -8 -8 -8 -8 -8 -8 -8 -8 -8 -8 -8 -8 -8 -8 -8 -8 -9 -9
-10 -10 -10 -9 -9 -10 -10 -9 -9 -10 -9 -9 -8 -8 -8 -8 -9 -9 -9 -8 -8 -8 -8 -8 -8 -8 -8 -8 -8 -8 -8 -8 -8 -8 -8 -8 -8 -9 -9 -9 -10 -10 -10
-10 -10 -10 -10 -9 -10 -9 -9 -10 -10 -10 -9 -9 -9 -9 -9 -9 -9 -9 -9 -9 -9 -9 -9 -9 -9 -9 -9 -9 -9 -9 -9 -9 -9 -9 -9 -9 -9 -10 -10 -11 -11 -11
-10 -9 -10 -10 -10 -10 -10 -10 -10 -10 -10 -10 -10 -9 -9 -9 -9 -9 -9 -9 -9 -9 -9 -9 -9 -9 -9 -9 -9 -9 -9 -9 -9 -9 -9 -9 -10 -10 -10 -11 -12 -12 -13
-10 -10 -10 -10 -10 -10 -10 -10 -11 -11 -10 -10 -10 -10 -10 -9 -9 -9 -9 -9 -9 -9 -9 -9 -9 -9 -10 -10 -10 -10 -10 -10 -10 -10 -10 -10 -11 -11 -12 -12 -13 -13 -13
-11 -10 -10 -10 -10 -10 -10 -11 -10 -11 -10 -10 -10 -10 -10 -10 -10 -10 -10 -10 -10 -10 -10 -10 -10 -10 -11 -11 -11 -11 -10 -10 -11 -11 -11 -12 -12 -12 -13 -13 -13 -14 -14
-10 -11 -10 -10 -11 -11 -10 -10 -10 -10 -10 -10 -10 -10 -10 -10 -10 -10 -10 -10 -10 -10 -10 -11 -11 -11 -11 -11 -11 -11 -11 -12 -12 -12 -13 -13 -13 -14 -14 -14 -14 -15 -15
-11 -10 -10 -10 -10 -11 -11 -10 -10 -10 -10 -10 -10 -10 -10 -10 -10 -10 -10 -10 -11 -11 -11 -11 -12 -12 -12 -12 -12 -12 -12 -13 -13 -13 -14 -14 -14 -15 -15 -15 -15 -15 -15
-10 -11 -11 -11 -11 -11 -11 -10 -10 -11 -10 -10 -10 -10 -10 -10 -10 -10 -11 -11 -11 -11 -12 -12 -12 -12 -12 -12 -13 -13 -13 -14 -14 -15 -15 -15 -15 -15 -15 -16 -16 -16 -16
-10 -11 -11 -11 -10 -11 -11 -11 -11 -11 -11 -11 -11 -11 -11 -11 -11 -11 -11 -12 -12 -12 -12 -12 -13 -13 -13 -13 -13 -14 -14 -14 -15 -15 -15 -15 -15 -15 -16 -16 -16 -17 -17
-10 -11 -11 -11 -11 -11 -11 -11 -11 -11 -11 -11 -11 -11 -11 -11 -12 -12 -12 -12 -12 -13 -13 -13 -13 -14 -14 -14 -14 -15 -15 -15 -15 -15 -16 -16 -16 -16 -16 -17 -17 -17 -17
-11 -11 -11 -11 -11 -11 -11 -11 -11 -11 -11 -11 -11 -12 -12 -12 -12 -13 -13 -13 -13 -14 -14 -14 -14 -15 -15 -15 -15 -15 -15 -16 -16 -16 -16 -17 -17 -17 -17 -17 -17 -18 -18
-10 -11 -11 -11 -11 -11 -11 -11 -11 -11 -12 -12 -12 -13 -13 -13 -13 -13 -13 -13 -14 -14 -14 -15 -15 -15 -15 -15 -15 -16 -16 -16 -16 -17 -17 -17 -17 -18 -18 -18 -19 -19 -19
-11 -11 -11 -11 -11 -11 -11 -12 -12 -12 -12 -13 -13 -13 -13 -14 -14 -14 -14 -14 -14 -15 -15 -15 -16 -15 -16 -16 -16 -16 -17 -17 -17 -17 -18 -18 -18 -19 -19 -20 -20 -20 -20
-11 -11 -11 -12 -12 -12 -12 -12 -13 -13 -13 -13 -13 -13 -14 -14 -14 -14 -14 -15 -15 -16 -16 -16 -16 -16 -17 -17 -17 -17 -17 -18 -18 -18 -18 -19 -19 -19 -20 -20 -20 -20 -21
-11 -12 -12 -12 -12 -12 -12 -13 -13 -13 -13 -13 -14 -14 -14 -14 -14 -14 -15 -15 -16 -16 -16 -16 -17 -17 -17 -17 -17 -18 -18 -18 -19 -19 -19 -19 -20 -20 -20 -20 -21 -21 -21
-12 -12 -12 -12 -12 -13 -13 -13 -13 -13 -14 -14 -15 -15 -15 -15 -15 -15 -16 -16 -16 -17 -17 -17 -17 -17 -17 -18 -18 -18 -19 -19 -19 -19 -20 -20 -20 -20 -21 -21 -21 -21 -21
-13 -13 -13 -13 -14 -14 -14 -14 -14 -14 -15 -15 -15 -15 -15 -15 -16 -16 -16 -16 -17 -17 -17 -17 -18 -18 -18 -19 -19 -19 -19 -19 -20 -20 -20 -20 -21 -21 -21 -21 -22 -22 -22
-14 -15 -15 -15 -15 -14 -14 -14 -15 -15 -15 -15 -15 -15 -16 -16 -16 -16 -17 -17 -17 -17 -18 -18 -18 -18 -19 -19 -19 -20 -20 -20 -20 -20 -20 -21 -21 -21 -21 -22 -22 -22 -22
-15 -15 -15 -15 -15 -15 -15 -15 -15 -15 -16 -16 -16 -16 -16 -17 -17 -17 -17 -17 -18 -18 -18 -18 -19 -19 -19 -20 -20 -20 -20 -20 -20 -21 -21 -21 -21 -21 -21 -22 -22 -22 -22
Height
5855 5858 5862 5863 5864 5866 5866 5865 5865 5865 5864 5863 5864 5865 5864 5863 5863 5863 5862 5862 5861 5861 5860 5859 5858 5857 5856 5855 5854 5853 5852 5851 5851 5850 5851 5850 5850 5850 5849 5849 5848 5846 5845
5856 5858 5860 5863 5864 5864 5865 5866 5866 5864 5864 5864 5863 5863 5863 5863 5862 5861 5861 5862 5861 5861 5860 5860 5859 5857 5856 5856 5855 5853 5852 5851 5850 5848 5848 5847 5846 5846 5845 5844 5843 5841 5840
5860 5861 5861 5860 5863 5864 5863 5864 5865 5864 5864 5863 5862 5861 5861 5861 5861 5861 5860 5860 5860 5860 5859 5858 5857 5856 5855 5854 5852 5852 5850 5849 5847 5846 5845 5844 5843 5842 5840 5839 5837 5836 5834
5860 5861 5861 5863 5864 5863 5863 5863 5863 5862 5862 5862 5860 5859 5859 5860 5859 5859 5858 5858 5858 5857 5857 5856 5855 5854 5852 5850 5849 5848 5847 5846 5844 5843 5842 5840 5839 5837 5836 5834 5832 5829 5827
5862 5862 5862 5865 5865 5862 5860 5860 5862 5861 5860 5860 5859 5858 5858 5858 5858 5857 5857 5856 5855 5855 5854 5853 5851 5849 5848 5847 5846 5845 5844 5843 5842 5840 5838 5836 5834 5831 5829 5827 5825 5822 5819
5860 5860 5860 5861 5861 5860 5859 5859 5859 5859 5858 5857 5857 5856 5856 5857 5856 5855 5855 5855 5853 5851 5850 5850 5848 5847 5845 5844 5842 5841 5839 5838 5836 5834 5832 5830 5828 5826 5823 5820 5817 5814 5811
5854 5856 5854 5857 5860 5857 5857 5856 5857 5857 5856 5855 5853 5852 5852 5853 5853 5853 5852 5851 5850 5850 5848 5847 5846 5844 5842 5840 5838 5837 5835 5833 5831 5829 5826 5824 5822 5819 5816 5812 5809 5806 5801
5849 5852 5852 5853 5853 5852 5853 5851 5852 5852 5852 5852 5850 5849 5849 5849 5849 5849 5848 5848 5848 5846 5845 5844 5842 5840 5838 5837 5835 5832 5830 5828 5825 5822 5819 5816 5812 5809 5805 5802 5798 5794 5790
5847 5849 5849 5849 5849 5848 5850 5849 5848 5849 5851 5850 5848 5847 5847 5848 5847 5846 5845 5844 5843 5842 5840 5838 5837 5835 5833 5831 5829 5826 5824 5821 5818 5815 5811 5807 5803 5799 5795 5791 5787 5783 5779
5840 5838 5843 5844 5846 5846 5847 5847 5846 5847 5848 5848 5846 5846 5845 5844 5843 5841 5840 5839 5837 5836 5835 5832 5830 5829 5826 5824 5821 5818 5815 5813 5809 5805 5801 5797 5793 5788 5784 5779 5775 5771 5767
5841 5838 5841 5842 5842 5843 5844 5844 5844 5846 5846 5844 5843 5842 5841 5839 5839 5837 5836 5834 5832 5829 5827 5826 5824 5822 5819 5816 5812 5809 5806 5802 5799 5794 5790 5785 5781 5776 5772 5768 5764 5760 5756
5839 5839 5839 5839 5840 5840 5840 5841 5841 5842 5842 5840 5839 5838 5835 5833 5832 5830 5828 5825 5824 5821 5819 5817 5815 5813 5810 5806 5803 5800 5796 5792 5787 5783 5778 5773 5769 5765 5761 5757 5753 5749 5745
5837 5835 5835 5835 5836 5836 5836 5835 5836 5836 5836 5835 5833 5831 5829 5827 5824 5822 5820 5818 5816 5813 5811 5809 5807 5804 5800 5797 5793 5789 5785 5781 5776 5772 5767 5763 5759 5754 5751 5747 5742 5738 5734
5835 5833 5832 5830 5829 5830 5830 5830 5829 5828 5828 5827 5825 5823 5821 5819 5817 5814 5812 5809 5807 5805 5802 5800 5798 5794 5791 5787 5782 5779 5774 5770 5766 5761 5756 5752 5748 5744 5740 5736 5732 5728 5724
5829 5828 5827 5827 5826 5825 5824 5823 5822 5821 5820 5819 5817 5815 5813 5810 5808 5806 5803 5801 5798 5796 5794 5791 5788 5784 5780 5776 5772 5767 5763 5759 5755 5751 5748 5743 5739 5735 5731 5726 5722 5719 5715
5822 5822 5821 5821 5820 5818 5817 5816 5815 5814 5812 5810 5808 5806 5803 5801 5799 5797 5794 5791 5789 5787 5784 5780 5776 5772 5769 5765 5761 5756 5752 5748 5745 5741 5737 5733 5729 5725 5721 5716 5712 5708 5704
5815 5815 5812 5812 5811 5810 5809 5807 5806 5806 5803 5801 5799 5796 5794 5791 5788 5786 5784 5782 5780 5776 5773 5769 5765 5761 5757 5753 5749 5746 5742 5738 5734 5730 5726 5722 5718 5714 5710 5705 5701 5696 5692
5806 5805 5804 5803 5802 5801 5800 5798 5797 5795 5793 5790 5789 5786 5783 5781 5778 5776 5773 5771 5768 5765 5762 5758 5754 5750 5747 5743 5739 5736 5732 5728 5724 5720 5716 5711 5707 5702 5698 5694 5689 5684 5680
5796 5795 5794 5793 5792 5791 5790 5788 5786 5784 5782 5780 5778 5775 5773 5771 5768 5766 5764 5761 5757 5753 5750 5747 5743 5740 5736 5733 5729 5726 5722 5718 5714 5709 5705 5700 5696 5691 5687 5682 5677 5673 5669
5787 5786 5784 5783 5782 5781 5779 5777 5775 5773 5771 5769 5766 5765 5763 5760 5758 5756 5753 5750 5746 5743 5740 5737 5733 5730 5727 5723 5719 5716 5711 5707 5703 5699 5695 5690 5685 5680 5675 5671 5666 5662 5658
5775 5774 5774 5773 5772 5770 5767 5765 5763 5761 5759 5757 5756 5755 5753 5751 5748 5745 5743 5739 5736 5733 5730 5727 5723 5720 5716 5712 5708 5704 5700 5696 5692 5688 5684 5679 5674 5669 5664 5660 5656 5653 5648
5764 5763 5762 5761 5759 5757 5755 5754 5752 5751 5749 5747 5746 5745 5743 5741 5738 5735 5732 5729 5726 5723 5720 5716 5713 5709 5704 5701 5697 5693 5689 5685 5681 5677 5672 5667 5663 5658 5654 5650 5646 5641 5637
5750 5749 5748 5747 5746 5745 5744 5744 5743 5741 5739 5738 5737 5735 5734 5731 5728 5725 5722 5719 5716 5712 5709 5705 5702 5698 5695 5692 5688 5684 5679 5675 5671 5666 5661 5657 5653 5648 5644 5640 5636 5631 5626
5737 5737 5736 5736 5735 5735 5735 5734 5732 5731 5730 5729 5727 5725 5723 5720 5718 5715 5713 5710 5707 5703 5700 5697 5694 5690 5686 5683 5678 5673 5669 5665 5660 5656 5651 5647 5643 5639 5634 5630 5626 5620 5616
5725 5726 5727 5726 5726 5725 5724 5723 5722 5721 5720 5719 5717 5714 5712 5710 5708 5705 5702 5699 5697 5694 5691 5688 5685 5681 5677 5673 5668 5663 5658 5654 5650 5646 5641 5637 5633 5629 5624 5620 5615 5610 5605
5714 5715 5716 5717 5715 5714 5714 5713 5713 5711 5710 5710 5707 5705 5704 5702 5699 5697 5694 5691 5688 5685 5682 5679 5675 5671 5667 5662 5657 5653 5648 5644 5639 5635 5631 5627 5623 5618 5613 5608 5603 5598 5593
Wind_Speed
5 8 9 4 3 4 5 5 6 6 4 4 3 4 4 3 2 3 3 4 8 9 10 10 9 9 9 7 3 2 2 3 3 2 9 7 10 13 17 19 21 23 24
2 11 8 2 3 3 6 7 9 7 6 6 6 6 6 5 3 5 6 6 3 1 2 3 5 6 7 7 6 6 6 6 6 6 9 13 11 13 16 17 19 21 23
8 5 5 3 5 4 5 7 10 7 7 7 6 5 6 6 6 7 6 5 5 5 6 6 8 10 12 12 12 11 12 12 11 12 12 14 16 18 20 21 23 25 26
2 2 2 6 6 4 6 8 10 10 9 7 6 6 6 7 7 9 9 9 9 9 11 12 14 15 14 13 11 12 13 14 15 17 18 19 21 23 24 25 27 29 30
6 3 4 8 8 7 7 10 11 10 9 8 7 6 6 8 9 10 12 12 12 13 15 16 16 13 11 12 14 14 14 15 17 18 19 21 23 25 28 30 33 35 37
7 7 8 9 9 9 9 9 11 9 8 8 8 7 7 9 11 11 13 15 15 15 15 14 12 13 16 17 18 18 19 19 19 20 21 24 26 28 30 33 35 38 40
13 11 10 11 12 12 13 14 13 9 6 7 7 6 7 10 11 12 12 12 12 13 13 15 17 20 19 18 17 19 20 20 22 25 25 27 28 30 33 35 37 39 41
18 17 12 9 12 7 8 10 15 7 5 6 5 6 5 6 7 8 9 11 14 15 17 19 19 18 19 20 21 22 23 25 26 27 30 32 34 36 36 37 38 39 41
15 23 17 10 9 5 2 3 5 2 9 9 6 7 6 7 8 10 12 13 14 14 16 17 20 22 23 24 25 26 27 27 28 32 35 37 37 38 39 41 41 41 42
7 18 22 10 5 5 6 5 2 6 9 11 11 12 13 14 15 14 14 14 15 17 20 22 24 25 27 28 29 30 31 34 37 37 39 40 40 41 42 42 42 42 42
4 3 5 6 8 10 8 7 8 12 14 13 14 15 16 16 17 18 18 20 20 21 24 25 27 28 29 31 33 34 36 37 38 40 41 41 42 42 42 41 40 40 40
9 8 8 8 7 9 14 9 13 17 19 20 20 21 21 22 23 23 24 24 24 25 26 27 28 29 31 33 34 34 37 38 39 41 42 42 41 40 40 39 39 39 40
12 11 11 11 14 13 12 12 15 18 21 22 24 24 23 24 23 24 26 26 26 27 28 29 31 32 34 34 36 39 40 41 40 39 39 38 38 38 39 39 37 37 37
13 13 13 13 12 12 16 17 17 20 21 22 22 22 23 25 28 29 29 29 30 31 33 34 33 34 36 39 40 41 40 40 39 38 37 36 36 37 36 36 36 35 34
17 15 17 17 18 20 22 22 22 24 26 28 28 29 28 29 30 32 31 33 34 35 36 36 36 36 38 40 42 41 38 36 34 34 35 36 36 35 35 35 36 37 38
21 20 20 20 22 23 25 26 28 29 30 31 31 32 32 33 34 35 34 35 38 38 38 38 39 41 41 40 38 35 34 35 35 35 36 36 36 36 37 38 40 41 42
24 23 22 23 26 27 28 29 30 32 33 33 34 34 34 34 35 37 38 39 40 40 39 39 41 41 37 35 35 35 35 35 35 36 37 39 40 42 43 44 45 46 45
29 28 27 27 28 30 31 32 33 33 33 34 36 37 36 35 36 37 39 40 40 39 41 39 36 34 35 34 35 35 36 37 38 40 42 42 42 43 43 44 43 42 42
32 30 29 30 30 31 34 36 36 36 36 37 37 36 36 38 39 40 42 40 40 37 34 34 34 35 35 36 37 37 39 40 41 40 39 40 40 41 42 42 42 41 40
32 29 28 31 34 36 36 39 40 38 36 36 37 37 37 36 36 38 39 37 37 34 32 33 33 36 37 37 38 39 38 37 38 38 38 39 41 41 40 40 40 39 40
34 36 37 38 39 39 38 36 33 33 35 36 35 37 33 37 39 40 39 36 33 32 32 33 35 36 37 38 37 37 38 37 37 39 41 42 42 40 38 37 37 38 39
42 42 44 44 43 41 38 32 32 34 36 37 38 35 37 39 40 38 34 33 31 32 33 34 35 35 35 37 37 36 38 40 40 41 41 39 36 36 37 37 38 39 39
44 45 45 44 41 38 33 33 35 37 36 35 36 37 39 36 34 34 32 33 34 33 34 34 33 35 36 36 38 39 40 40 40 41 37 35 36 36 37 38 39 39 40
43 42 40 40 36 34 33 34 36 35 33 36 37 34 34 34 32 31 31 32 32 30 30 33 33 34 36 38 39 39 40 41 40 35 35 36 36 37 37 38 39 40 40
37 34 36 37 38 35 33 33 33 35 36 33 34 35 35 33 31 30 30 29 29 31 31 33 35 36 38 39 39 40 40 38 35 35 36 36 36 38 39 40 40 41 41
36 35 33 34 30 31 33 34 35 36 31 32 34 33 31 30 30 29 29 31 31 32 35 36 37 38 38 38 38 37 36 36 36 36 36 37 39 41 42 43 42 42 42
Wind_Direction
172 210 198 208 324 300 288 270 283 281 269 250 257 265 275 281 272 207 163 123 103 79 67 61 55 46 41 41 35 359 312 299 273 266 298 263 257 260 266 271 273 277 281
67 202 188 182 278 278 286 290 271 272 270 259 258 267 276 261 220 167 159 165 156 129 49 17 2 354 345 335 330 324 306 297 295 287 277 292 284 282 282 282 284 286 286
89 162 178 169 247 255 255 261 254 247 260 262 265 272 269 257 235 217 207 218 236 276 300 314 319 319 318 314 310 304 298 295 294 290 288 284 283 283 286 288 289 288 286
113 209 194 251 244 224 272 282 260 240 245 257 260 262 273 275 255 252 252 258 271 281 292 300 302 304 306 306 309 310 310 309 308 307 304 301 299 296 295 295 293 292 291
285 293 282 277 270 265 288 269 271 261 257 260 269 278 283 287 283 279 274 269 274 283 288 290 293 296 302 305 304 304 305 304 301 302 301 300 301 302 303 302 301 299 296
277 276 257 254 256 276 293 291 276 266 259 268 269 278 288 289 285 280 279 282 287 286 288 290 292 299 306 305 303 302 304 305 305 305 306 306 305 305 302 299 296 295 294
238 247 243 251 262 265 279 281 275 263 268 271 267 277 280 277 277 282 286 289 291 291 288 290 295 299 300 300 302 304 304 305 306 304 303 305 305 304 301 298 295 292 289
231 240 241 247 243 262 277 259 246 210 257 276 281 297 293 268 261 263 275 285 288 289 292 293 298 302 304 302 301 302 302 303 303 303 306 308 306 303 300 298 296 294 293
255 244 251 213 206 188 243 52 23 278 287 275 276 270 258 261 271 284 291 295 294 297 298 298 302 304 302 301 301 300 302 301 302 304 306 307 305 303 302 301 299 297 293
297 256 218 178 198 224 226 232 219 257 267 275 278 278 274 278 283 284 287 294 297 302 304 305 306 306 305 304 300 297 297 298 300 304 306 306 304 303 302 300 299 297 295
237 164 178 191 227 245 260 275 275 272 268 268 274 275 280 283 286 287 289 292 294 299 302 303 300 299 300 299 299 299 299 300 302 304 304 304 303 303 302 301 299 297 296
219 228 245 241 262 279 272 280 287 285 284 280 277 279 281 282 281 281 281 285 290 293 295 297 298 298 298 297 297 298 300 302 304 306 305 304 303 303 302 301 301 300 299
238 247 265 265 282 266 282 286 284 284 283 302 282 281 286 289 294 296 296 296 295 295 297 298 301 300 299 298 300 301 303 304 304 303 302 302 301 301 302 301 300 300 300
270 264 262 271 279 280 285 283 287 289 289 289 288 288 290 292 294 295 296 296 295 296 298 302 301 298 298 300 301 303 304 304 303 303 303 301 300 302 302 301 298 298 298
270 268 270 274 273 277 281 285 284 284 286 287 290 290 291 292 294 294 294 293 291 293 297 300 300 299 299 301 303 304 303 301 300 299 298 299 301 301 301 302 302 302 302
268 270 270 270 272 275 278 279 280 282 284 287 288 291 293 293 293 291 290 288 290 294 298 297 298 301 302 303 302 299 297 297 298 300 301 302 303 302 301 300 299 298 298
269 269 272 276 277 277 278 279 281 283 284 288 290 292 291 292 292 292 291 290 291 294 296 295 300 302 301 300 298 298 300 302 303 303 303 302 302 302 301 300 299 300 299
276 277 276 277 278 279 280 280 281 283 288 291 291 291 293 292 291 292 291 290 290 293 298 300 301 299 298 298 300 301 303 303 303 303 303 303 303 304 303 302 302 302 303
274 273 274 276 277 278 280 282 284 285 287 288 289 291 294 293 292 290 294 296 297 298 300 301 298 299 301 303 303 302 302 304 305 305 305 305 306 306 305 305 305 306 306
270 263 272 276 275 276 279 279 279 281 284 286 286 289 293 295 295 294 296 300 301 300 300 299 299 301 302 301 302 303 305 305 305 306 306 306 307 307 307 308 308 307 308
268 262 274 278 278 279 279 280 282 282 282 281 283 289 290 294 295 297 299 299 296 297 298 299 300 301 302 305 307 307 307 307 307 307 308 309 309 309 309 308 307 306 307
268 268 271 274 277 279 275 275 281 285 284 285 290 288 292 295 297 297 297 296 294 298 299 300 302 304 307 308 308 308 308 308 308 309 309 310 310 310 310 310 309 310 310
270 271 273 274 275 276 268 280 286 283 285 282 284 288 293 297 296 297 295 295 299 302 302 304 305 307 308 307 306 307 307 307 308 309 309 309 310 311 311 311 311 311 312
268 269 272 272 267 262 274 285 281 281 282 286 290 294 296 295 294 294 296 297 298 298 300 303 305 305 305 305 306 306 306 307 307 306 306 308 309 310 310 310 311 311 312
263 261 264 266 264 271 281 279 281 281 282 289 294 294 293 294 297 298 298 298 299 302 304 304 304 305 306 306 306 306 305 305 304 304 306 306 307 308 309 309 309 310 311
267 261 257 271 266 276 276 279 277 277 287 294 291 291 292 294 294 294 297 299 300 301 302 303 303 304 305 305 305 305 304 304 304 305 305 306 307 307 308 309 308 308 308